PHOENIX (42706 NORAD) Tracking and Keplerian Element Data

This shows tracking and keplerian element data for the satellite.

Feedback or suggestion? Click here.




ElementValue
Catalog42706
NamePHOENIX
Epoch Orbit8545
Epoch Day317.83728493
Epoch Year2018
RAAN309.7982
Inclination51.6294
Eccentricity0.0003204
Argument of Perigee48.1712
Mean Anonmoly311.9562
Mean Motion15.76779813
Decay Rate0.00035735
L11 42706U 98067LP 18317.83728493 .00035735 00000-0 22051-3 0 9999
L22 42706 51.6294 309.7982 0003204 48.1712 311.9562 15.76779813 85451

Live tracking and technical data element details for PHOENIX (NORAD 42706). PHOENIX can be tracked NOW for your location showing map with azimuth and elevation plus other details from your city location.

Track the satellite on the map from your city or location and see movement details for azimuth, elevation, latitude, longitude, range, height, and movement on the map or in text.







IsCatalogInMostPopularTable: catalog: 42706, numindb: 141
Update: records affected: 1



GetName: 42706 PHOENIX

Hit Count: updated at: Wed, 14 Nov 2018 11:09:35 GMT